Precipitable_Water
0.89 0.90 0.97 1.00 1.04 1.04 1.05 1.09 1.11 1.15 1.18 1.23 1.23 1.22 1.19 1.19 1.29 1.32 1.33 1.31 1.33 1.32 1.30 1.24 1.18 1.14 1.13 1.11 1.08 1.07 1.09 1.11 1.14 1.16 1.17 1.18 1.18 1.21 1.23 1.23 1.22 1.24 1.24 1.24 1.26 1.29 1.30 1.28 1.28 1.27 1.23 1.12 1.07 1.05 1.02 1.03 1.06 1.05 1.01 0.97 0.94 0.94 0.86 0.77 0.68 0.59 0.59 0.60 0.56 0.52 0.51 0.49 0.46 0.49 0.45 0.44 0.34 0.34 0.39 0.37 0.29 0.34 0.42 0.37 0.32
0.86 0.90 0.94 1.00 1.00 1.02 1.03 1.07 1.10 1.13 1.15 1.22 1.25 1.23 1.21 1.21 1.29 1.29 1.27 1.31 1.32 1.31 1.30 1.26 1.21 1.15 1.10 1.07 1.05 1.05 1.06 1.07 1.09 1.12 1.11 1.13 1.14 1.18 1.19 1.20 1.19 1.19 1.19 1.15 1.17 1.22 1.24 1.21 1.17 1.10 1.07 1.03 0.99 0.96 0.97 0.98 1.00 0.98 0.94 0.92 0.89 0.88 0.85 0.77 0.68 0.60 0.53 0.56 0.52 0.52 0.50 0.47 0.44 0.48 0.45 0.42 0.35 0.36 0.35 0.34 0.35 0.39 0.37 0.39 0.37
0.86 0.89 0.89 0.91 0.94 1.00 1.03 1.02 1.05 1.08 1.13 1.23 1.25 1.23 1.21 1.23 1.29 1.28 1.29 1.29 1.32 1.32 1.32 1.28 1.20 1.14 1.09 1.05 1.04 1.03 1.04 1.05 1.09 1.11 1.13 1.14 1.13 1.14 1.17 1.19 1.18 1.14 1.11 1.09 1.09 1.12 1.11 1.09 1.05 1.01 0.97 0.92 0.91 0.91 0.93 0.93 0.93 0.91 0.88 0.89 0.87 0.82 0.80 0.77 0.67 0.58 0.53 0.51 0.51 0.47 0.47 0.43 0.47 0.44 0.46 0.44 0.42 0.37 0.36 0.32 0.33 0.34 0.39 0.41 0.39
0.86 0.84 0.86 0.87 0.92 0.95 0.96 1.00 1.02 1.06 1.11 1.22 1.24 1.24 1.22 1.24 1.30 1.29 1.29 1.29 1.29 1.33 1.33 1.28 1.19 1.12 1.05 1.04 1.04 1.03 1.03 1.06 1.09 1.12 1.13 1.14 1.14 1.15 1.16 1.16 1.13 1.11 1.07 1.02 0.99 0.99 0.96 0.91 0.88 0.84 0.82 0.82 0.82 0.85 0.85 0.84 0.84 0.84 0.84 0.83 0.81 0.77 0.77 0.74 0.67 0.60 0.54 0.48 0.48 0.46 0.46 0.43 0.49 0.45 0.47 0.45 0.42 0.37 0.37 0.35 0.35 0.34 0.34 0.37 0.39
0.83 0.83 0.83 0.83 0.89 0.93 0.94 0.97 0.99 1.03 1.11 1.23 1.24 1.23 1.21 1.23 1.28 1.27 1.27 1.28 1.33 1.32 1.33 1.28 1.17 1.09 1.05 1.02 1.02 1.03 1.04 1.07 1.08 1.11 1.15 1.17 1.17 1.15 1.13 1.12 1.09 1.08 1.04 0.98 0.93 0.90 0.85 0.83 0.79 0.78 0.76 0.76 0.76 0.77 0.75 0.75 0.77 0.78 0.75 0.76 0.77 0.77 0.73 0.68 0.64 0.61 0.55 0.50 0.47 0.47 0.48 0.45 0.48 0.46 0.45 0.42 0.40 0.37 0.39 0.34 0.33 0.35 0.33 0.37 0.39
0.80 0.80 0.81 0.82 0.87 0.91 0.91 0.94 0.98 1.02 1.14 1.24 1.24 1.22 1.22 1.23 1.25 1.25 1.25 1.28 1.31 1.33 1.30 1.23 1.12 1.06 1.07 1.06 1.04 1.04 1.06 1.07 1.09 1.12 1.14 1.15 1.15 1.15 1.13 1.11 1.08 1.04 0.97 0.93 0.89 0.87 0.87 0.81 0.76 0.73 0.71 0.70 0.70 0.71 0.71 0.69 0.71 0.70 0.71 0.73 0.71 0.70 0.67 0.65 0.63 0.60 0.56 0.53 0.47 0.44 0.47 0.44 0.44 0.45 0.43 0.40 0.37 0.35 0.35 0.34 0.35 0.36 0.36 0.33 0.36
0.78 0.78 0.79 0.80 0.86 0.89 0.88 0.93 0.99 1.06 1.17 1.25 1.25 1.22 1.22 1.24 1.25 1.26 1.27 1.27 1.30 1.31 1.29 1.17 1.09 1.07 1.06 1.06 1.05 1.04 1.05 1.08 1.10 1.12 1.13 1.13 1.14 1.12 1.11 1.10 1.04 0.99 0.94 0.89 0.87 0.85 0.81 0.77 0.73 0.71 0.68 0.69 0.70 0.68 0.66 0.66 0.66 0.68 0.69 0.67 0.67 0.66 0.63 0.61 0.59 0.56 0.54 0.52 0.47 0.46 0.44 0.47 0.46 0.40 0.41 0.40 0.40 0.37 0.34 0.32 0.29 0.32 0.36 0.36 0.35
0.75 0.75 0.77 0.82 0.87 0.88 0.91 0.98 1.04 1.11 1.22 1.26 1.24 1.23 1.24 1.24 1.25 1.26 1.26 1.26 1.30 1.32 1.24 1.11 1.07 1.07 1.06 1.05 1.05 1.05 1.07 1.08 1.11 1.12 1.11 1.10 1.10 1.09 1.08 1.05 0.98 0.95 0.94 0.90 0.86 0.83 0.79 0.77 0.75 0.71 0.66 0.67 0.69 0.68 0.67 0.66 0.66 0.65 0.66 0.65 0.65 0.62 0.60 0.58 0.57 0.55 0.53 0.51 0.46 0.43 0.44 0.43 0.43 0.44 0.43 0.40 0.38 0.36 0.36 0.33 0.30 0.31 0.32 0.37 0.38
0.73 0.75 0.79 0.85 0.87 0.88 0.95 1.02 1.09 1.18 1.24 1.25 1.23 1.22 1.23 1.23 1.23 1.23 1.24 1.27 1.32 1.34 1.23 1.09 1.05 1.04 1.07 1.05 1.04 1.06 1.06 1.08 1.11 1.11 1.08 1.07 1.07 1.05 1.03 0.99 0.95 0.93 0.91 0.87 0.88 0.85 0.80 0.77 0.73 0.69 0.67 0.65 0.64 0.67 0.68 0.67 0.63 0.60 0.61 0.63 0.62 0.61 0.59 0.58 0.56 0.55 0.54 0.49 0.44 0.44 0.43 0.42 0.41 0.41 0.37 0.33 0.33 0.34 0.36 0.35 0.35 0.34 0.35 0.33 0.35
0.75 0.80 0.83 0.86 0.89 0.93 0.99 1.05 1.11 1.21 1.23 1.21 1.21 1.22 1.22 1.22 1.21 1.20 1.23 1.27 1.33 1.30 1.14 1.08 1.06 1.05 1.04 1.03 1.03 1.04 1.06 1.11 1.12 1.10 1.08 1.07 1.04 1.02 1.01 0.99 0.98 0.96 0.91 0.85 0.84 0.80 0.77 0.75 0.69 0.60 0.58 0.58 0.59 0.61 0.62 0.62 0.64 0.65 0.63 0.62 0.61 0.60 0.59 0.57 0.56 0.55 0.52 0.45 0.43 0.41 0.40 0.39 0.41 0.41 0.36 0.33 0.35 0.37 0.36 0.33 0.35 0.35 0.35 0.34 0.35
0.80 0.84 0.85 0.90 0.92 0.97 1.02 1.07 1.17 1.21 1.22 1.22 1.21 1.20 1.19 1.19 1.18 1.20 1.23 1.28 1.30 1.20 1.09 1.04 1.05 1.07 1.04 1.00 1.01 1.03 1.07 1.11 1.09 1.07 1.05 1.05 1.06 1.01 0.98 0.97 0.94 0.89 0.85 0.81 0.78 0.75 0.70 0.69 0.64 0.57 0.56 0.56 0.58 0.59 0.60 0.61 0.62 0.63 0.65 0.67 0.67 0.64 0.59 0.57 0.57 0.55 0.48 0.44 0.44 0.42 0.40 0.39 0.40 0.41 0.37 0.36 0.38 0.40 0.37 0.31 0.33 0.34 0.30 0.32 0.30
0.84 0.87 0.89 0.91 0.95 0.98 1.04 1.13 1.19 1.21 1.21 1.18 1.17 1.18 1.20 1.19 1.18 1.20 1.24 1.27 1.23 1.13 1.05 1.04 1.07 1.07 1.04 1.02 1.03 1.04 1.07 1.08 1.06 1.04 1.03 1.03 1.04 1.02 0.97 0.94 0.89 0.83 0.80 0.77 0.75 0.70 0.67 0.66 0.66 0.62 0.63 0.62 0.60 0.59 0.58 0.58 0.59 0.60 0.62 0.63 0.63 0.63 0.63 0.61 0.56 0.50 0.46 0.44 0.43 0.41 0.40 0.40 0.41 0.40 0.38 0.38 0.40 0.37 0.35 0.33 0.35 0.33 0.30 0.31 0.36
0.87 0.88 0.91 0.92 0.96 1.01 1.08 1.18 1.20 1.19 1.17 1.17 1.17 1.18 1.18 1.19 1.18 1.20 1.24 1.25 1.16 1.05 1.03 1.05 1.07 1.08 1.04 1.01 1.01 1.05 1.07 1.05 1.03 1.02 1.01 1.00 1.00 1.01 0.96 0.91 0.85 0.82 0.79 0.77 0.75 0.71 0.71 0.71 0.71 0.69 0.66 0.61 0.60 0.61 0.59 0.57 0.57 0.58 0.59 0.58 0.57 0.57 0.56 0.54 0.54 0.56 0.49 0.46 0.44 0.41 0.41 0.44 0.42 0.40 0.42 0.41 0.39 0.35 0.37 0.35 0.37 0.34 0.35 0.35 0.35
0.87 0.87 0.89 0.93 0.98 1.05 1.15 1.20 1.18 1.17 1.16 1.15 1.15 1.15 1.17 1.17 1.20 1.25 1.26 1.18 1.08 1.03 1.04 1.07 1.09 1.07 1.04 1.02 1.03 1.05 1.06 1.03 1.02 1.01 1.00 0.98 0.97 0.98 0.97 0.91 0.87 0.85 0.83 0.82 0.81 0.78 0.77 0.77 0.74 0.71 0.69 0.65 0.65 0.64 0.62 0.59 0.58 0.57 0.56 0.54 0.53 0.51 0.48 0.46 0.45 0.46 0.52 0.52 0.48 0.43 0.44 0.47 0.44 0.43 0.45 0.41 0.37 0.36 0.35 0.36 0.38 0.37 0.36 0.37 0.40
0.87 0.89 0.90 0.96 1.03 1.11 1.17 1.18 1.17 1.16 1.14 1.13 1.15 1.16 1.17 1.19 1.21 1.24 1.17 1.08 1.03 1.02 1.04 1.07 1.09 1.08 1.05 1.05 1.04 1.05 1.06 1.03 1.02 1.01 0.99 0.97 0.96 0.96 0.98 0.93 0.92 0.91 0.90 0.89 0.87 0.87 0.87 0.85 0.82 0.78 0.76 0.71 0.71 0.69 0.65 0.62 0.61 0.60 0.58 0.57 0.57 0.53 0.49 0.45 0.44 0.46 0.47 0.51 0.49 0.47 0.48 0.47 0.47 0.47 0.45 0.42 0.40 0.42 0.40 0.43 0.40 0.40 0.40 0.45 0.39
0.87 0.90 0.92 1.00 1.07 1.14 1.16 1.16 1.15 1.13 1.12 1.14 1.13 1.13 1.15 1.17 1.19 1.18 1.11 1.08 1.07 1.07 1.10 1.12 1.09 1.08 1.08 1.06 1.04 1.04 1.04 1.03 1.02 1.01 0.99 0.97 0.96 0.95 0.97 0.93 0.92 0.91 0.91 0.92 0.90 0.90 0.89 0.87 0.84 0.82 0.80 0.76 0.74 0.68 0.68 0.67 0.66 0.65 0.63 0.61 0.58 0.54 0.52 0.53 0.52 0.50 0.54 0.55 0.52 0.50 0.51 0.51 0.49 0.49 0.46 0.43 0.43 0.47 0.48 0.49 0.46 0.45 0.39 0.33 0.34
0.87 0.91 0.96 1.05 1.11 1.14 1.16 1.14 1.12 1.10 1.13 1.12 1.10 1.10 1.12 1.18 1.16 1.12 1.06 1.04 1.03 1.05 1.08 1.10 1.11 1.10 1.08 1.06 1.04 1.04 1.02 1.02 1.01 1.01 1.00 0.98 0.95 0.95 0.95 0.92 0.91 0.91 0.90 0.91 0.91 0.91 0.91 0.89 0.87 0.85 0.84 0.82 0.76 0.71 0.70 0.69 0.70 0.68 0.63 0.59 0.56 0.52 0.53 0.51 0.49 0.48 0.48 0.50 0.48 0.49 0.48 0.45 0.46 0.46 0.43 0.45 0.52 0.49 0.43 0.39 0.37 0.37 0.36 0.37 0.41
0.90 0.96 1.02 1.09 1.11 1.14 1.16 1.15 1.12 1.13 1.13 1.10 1.10 1.13 1.20 1.21 1.10 1.10 1.06 1.03 1.01 1.06 1.11 1.10 1.11 1.12 1.08 1.06 1.05 1.02 1.01 1.02 1.01 1.00 1.00 0.98 0.96 0.96 0.93 0.90 0.89 0.88 0.88 0.88 0.88 0.88 0.90 0.86 0.86 0.88 0.86 0.84 0.76 0.72 0.69 0.68 0.68 0.66 0.62 0.59 0.57 0.52 0.52 0.52 0.48 0.47 0.46 0.45 0.45 0.45 0.45 0.44 0.45 0.44 0.42 0.43 0.45 0.43 0.43 0.38 0.40 0.40 0.39 0.41 0.42
0.95 1.00 1.05 1.09 1.13 1.16 1.18 1.17 1.16 1.15 1.14 1.11 1.12 1.13 1.14 1.09 1.09 1.13 1.10 1.07 1.06 1.11 1.11 1.08 1.10 1.12 1.11 1.09 1.07 1.04 1.02 1.01 1.00 1.00 1.00 0.98 0.96 0.98 0.93 0.90 0.87 0.86 0.85 0.83 0.86 0.85 0.86 0.82 0.81 0.84 0.87 0.86 0.75 0.72 0.69 0.66 0.66 0.64 0.60 0.57 0.54 0.52 0.53 0.52 0.46 0.44 0.45 0.45 0.45 0.45 0.43 0.44 0.44 0.43 0.42 0.40 0.40 0.40 0.47 0.52 0.50 0.43 0.42 0.43 0.42
0.99 1.06 1.08 1.11 1.15 1.18 1.18 1.17 1.18 1.18 1.16 1.13 1.13 1.11 1.10 1.13 1.13 1.09 1.07 1.06 1.07 1.08 1.07 1.05 1.04 1.07 1.11 1.11 1.06 1.06 1.02 1.00 1.00 1.00 0.99 0.98 0.97 1.00 0.96 0.91 0.88 0.88 0.87 0.87 0.86 0.88 0.89 0.88 0.84 0.84 0.81 0.78 0.74 0.70 0.68 0.68 0.69 0.67 0.61 0.57 0.54 0.56 0.61 0.53 0.47 0.45 0.45 0.46 0.47 0.48 0.46 0.46 0.47 0.48 0.48 0.43 0.42 0.42 0.44 0.52 0.55 0.48 0.45 0.45 0.44
1.07 1.09 1.09 1.12 1.15 1.16 1.19 1.20 1.19 1.20 1.20 1.15 1.11 1.07 1.08 1.12 1.10 1.06 1.02 1.04 1.05 1.04 1.03 1.02 1.01 1.03 1.08 1.09 1.07 1.07 1.04 1.01 1.00 1.01 1.00 0.99 0.98 0.99 0.98 0.94 0.93 0.91 0.90 0.90 0.90 0.91 0.92 0.92 0.93 0.87 0.83 0.79 0.75 0.73 0.71 0.71 0.71 0.71 0.66 0.61 0.60 0.63 0.61 0.54 0.48 0.51 0.50 0.51 0.54 0.54 0.53 0.54 0.53 0.52 0.53 0.50 0.45 0.44 0.43 0.45 0.52 0.52 0.49 0.45 0.45
1.09 1.08 1.09 1.12 1.15 1.17 1.19 1.22 1.23 1.22 1.21 1.19 1.14 1.08 1.11 1.12 1.07 1.03 1.05 1.03 1.01 1.00 1.01 1.00 1.00 1.02 1.06 1.08 1.07 1.07 1.06 1.05 1.02 1.02 1.01 1.00 0.99 0.99 0.99 0.98 0.99 0.96 0.93 0.92 0.93 0.93 0.94 0.95 0.96 0.92 0.86 0.82 0.79 0.77 0.75 0.73 0.70 0.69 0.72 0.70 0.67 0.62 0.60 0.57 0.55 0.53 0.52 0.53 0.57 0.56 0.54 0.55 0.54 0.52 0.53 0.52 0.51 0.47 0.46 0.47 0.46 0.48 0.48 0.47 0.48
1.08 1.10 1.12 1.14 1.16 1.17 1.17 1.16 1.16 1.15 1.15 1.16 1.12 1.07 1.04 1.03 1.06 1.07 1.03 1.01 0.99 0.98 0.98 1.00 1.01 1.04 1.07 1.09 1.09 1.08 1.06 1.05 1.05 1.03 1.02 1.01 1.01 0.99 0.99 1.01 0.98 0.97 0.94 0.93 0.93 0.94 0.97 0.97 0.98 0.93 0.86 0.81 0.77 0.76 0.73 0.70 0.66 0.67 0.67 0.68 0.65 0.61 0.59 0.55 0.54 0.49 0.50 0.53 0.56 0.53 0.50 0.49 0.49 0.49 0.48 0.48 0.49 0.49 0.48 0.49 0.49 0.47 0.48 0.50 0.51
1.13 1.14 1.14 1.15 1.17 1.15 1.15 1.18 1.20 1.17 1.14 1.14 1.11 1.02 0.96 1.04 1.07 1.04 1.02 0.99 0.95 0.95 0.97 1.01 1.05 1.07 1.08 1.07 1.06 1.06 1.06 1.06 1.05 1.04 1.04 1.03 1.02 1.00 0.99 1.00 0.99 0.97 0.96 0.94 0.95 0.96 0.96 0.96 0.95 0.90 0.85 0.79 0.74 0.72 0.69 0.67 0.66 0.66 0.67 0.67 0.63 0.59 0.57 0.54 0.51 0.48 0.49 0.53 0.51 0.47 0.47 0.48 0.48 0.50 0.50 0.49 0.50 0.52 0.50 0.49 0.50 0.52 0.50 0.49 0.50
1.14 1.12 1.15 1.16 1.14 1.15 1.19 1.23 1.26 1.24 1.20 1.14 1.06 0.98 1.01 1.05 1.00 1.01 1.02 0.99 0.97 0.95 0.99 1.04 1.06 1.08 1.07 1.04 1.02 1.03 1.05 1.06 1.05 1.04 1.04 1.04 1.02 1.01 1.00 1.00 0.98 0.96 0.93 0.95 0.97 0.97 0.96 0.94 0.91 0.85 0.81 0.77 0.73 0.70 0.69 0.68 0.68 0.67 0.65 0.62 0.60 0.58 0.57 0.54 0.51 0.51 0.51 0.46 0.45 0.48 0.49 0.51 0.52 0.52 0.50 0.49 0.51 0.52 0.51 0.50 0.50 0.51 0.51 0.51 0.51
1.14 1.14 1.17 1.20 1.21 1.23 1.23 1.25 1.26 1.28 1.27 1.19 1.07 0.98 0.99 1.01 0.99 1.01 1.01 0.99 1.00 1.01 1.04 1.07 1.07 1.06 1.05 1.04 1.01 1.02 1.04 1.04 1.03 1.04 1.04 1.03 1.02 1.01 0.99 0.98 0.96 0.95 0.94 0.97 0.96 0.96 0.94 0.92 0.87 0.77 0.71 0.68 0.66 0.64 0.63 0.63 0.63 0.62 0.59 0.58 0.58 0.58 0.55 0.52 0.51 0.49 0.47 0.45 0.46 0.47 0.47 0.49 0.52 0.49 0.53 0.51 0.46 0.43 0.44 0.44 0.47 0.48 0.49 0.47 0.47
1.17 1.15 1.16 1.21 1.26 1.28 1.26 1.22 1.21 1.23 1.24 1.21 1.10 0.97 1.00 1.02 1.05 1.05 1.02 0.98 1.00 1.03 1.04 1.06 1.06 1.06 1.04 1.03 1.02 1.01 1.01 1.02 1.01 1.01 1.02 1.02 1.00 0.99 0.99 0.98 0.97 0.95 0.92 0.93 0.93 0.93 0.92 0.89 0.81 0.73 0.67 0.63 0.62 0.62 0.62 0.61 0.60 0.59 0.58 0.59 0.59 0.58 0.55 0.52 0.49 0.48 0.48 0.49 0.47 0.46 0.46 0.50 0.53 0.52 0.45 0.44 0.44 0.46 0.48 0.48 0.49 0.49 0.48 0.48 0.45
1.18 1.16 1.16 1.19 1.22 1.24 1.22 1.20 1.16 1.11 1.08 1.05 1.00 0.99 1.03 1.07 1.06 1.04 0.99 0.97 1.00 1.01 1.02 1.05 1.05 1.03 1.02 1.02 1.01 0.99 0.98 0.99 1.00 0.99 1.00 0.99 0.98 0.98 0.98 0.97 0.94 0.92 0.90 0.92 0.92 0.93 0.91 0.85 0.76 0.72 0.67 0.63 0.60 0.62 0.62 0.62 0.61 0.60 0.60 0.60 0.59 0.58 0.56 0.55 0.54 0.50 0.48 0.47 0.48 0.49 0.49 0.49 0.50 0.46 0.46 0.44 0.45 0.45 0.49 0.49 0.49 0.50 0.51 0.48 0.45
1.19 1.20 1.22 1.23 1.21 1.21 1.19 1.18 1.08 0.95 0.93 0.98 1.04 1.06 1.05 1.06 1.06 1.07 1.15 1.16 1.14 1.10 1.07 1.09 1.09 1.08 1.06 1.02 0.99 0.97 0.97 0.97 1.00 1.03 1.01 1.00 0.99 0.97 0.96 0.94 0.93 0.92 0.91 0.91 0.91 0.90 0.87 0.77 0.71 0.69 0.66 0.62 0.59 0.57 0.57 0.58 0.59 0.61 0.62 0.61 0.58 0.57 0.54 0.51 0.48 0.49 0.50 0.52 0.51 0.51 0.49 0.50 0.48 0.45 0.44 0.43 0.44 0.46 0.50 0.49 0.49 0.47 0.49 0.47 0.43
1.24 1.22 1.23 1.22 1.18 1.16 1.17 1.15 1.08 1.00 0.98 0.95 0.94 0.97 1.05 1.10 1.10 1.08 1.07 1.15 1.19 1.21 1.19 1.14 1.13 1.10 1.06 1.07 1.08 1.02 1.00 1.05 1.09 1.04 1.02 1.01 1.00 0.99 0.96 0.94 0.93 0.92 0.91 0.90 0.88 0.84 0.80 0.73 0.69 0.67 0.66 0.64 0.60 0.58 0.58 0.58 0.57 0.56 0.55 0.54 0.54 0.54 0.55 0.53 0.51 0.50 0.50 0.49 0.50 0.49 0.49 0.48 0.45 0.43 0.42 0.43 0.45 0.45 0.50 0.47 0.47 0.47 0.45 0.45 0.42
1.21 1.23 1.19 1.13 1.11 1.12 1.16 1.15 1.09 1.02 1.01 1.00 0.96 0.92 0.94 1.01 1.09 1.12 1.14 1.17 1.19 1.20 1.20 1.17 1.14 1.12 1.10 1.06 1.08 1.09 1.09 1.08 1.06 1.02 1.01 1.00 0.99 0.96 0.94 0.92 0.91 0.91 0.90 0.87 0.83 0.80 0.77 0.72 0.68 0.66 0.64 0.64 0.62 0.60 0.60 0.59 0.59 0.55 0.53 0.52 0.51 0.53 0.54 0.55 0.55 0.53 0.51 0.50 0.49 0.49 0.49 0.47 0.43 0.42 0.41 0.43 0.44 0.46 0.49 0.47 0.45 0.47 0.45 0.44 0.42
1.13 1.18 1.19 1.19 1.15 1.09 1.06 1.05 1.02 0.98 1.01 1.02 0.97 0.95 0.96 0.95 1.00 1.09 1.13 1.16 1.19 1.19 1.16 1.14 1.13 1.12 1.12 1.10 1.06 1.02 1.03 1.02 1.00 1.01 1.01 1.00 0.98 0.96 0.93 0.92 0.90 0.90 0.89 0.88 0.81 0.77 0.77 0.75 0.71 0.68 0.66 0.64 0.64 0.65 0.62 0.59 0.60 0.58 0.56 0.56 0.55 0.57 0.55 0.54 0.56 0.54 0.53 0.51 0.48 0.46 0.46 0.45 0.42 0.41 0.42 0.44 0.44 0.44 0.46 0.46 0.43 0.43 0.43 0.43 0.43
1.18 1.20 1.20 1.24 1.26 1.23 1.13 1.02 0.99 0.98 1.00 1.00 1.00 1.01 0.99 0.99 0.98 0.98 1.06 1.14 1.18 1.16 1.13 1.13 1.13 1.12 1.10 1.08 1.07 1.04 1.02 1.01 1.00 1.01 1.00 0.99 0.96 0.93 0.92 0.90 0.89 0.88 0.86 0.82 0.77 0.75 0.76 0.77 0.75 0.72 0.69 0.66 0.65 0.63 0.60 0.59 0.58 0.59 0.62 0.62 0.61 0.61 0.60 0.60 0.60 0.57 0.54 0.51 0.48 0.45 0.44 0.42 0.42 0.42 0.42 0.43 0.43 0.42 0.43 0.44 0.44 0.43 0.42 0.41 0.41
1.20 1.22 1.23 1.18 1.15 1.14 1.13 1.09 1.05 1.04 1.04 1.03 1.04 1.02 1.03 1.04 1.03 1.03 1.04 1.08 1.09 1.10 1.12 1.13 1.11 1.07 1.05 1.04 1.02 1.01 1.00 1.00 1.00 0.99 0.97 0.94 0.93 0.92 0.90 0.88 0.88 0.87 0.84 0.79 0.77 0.76 0.76 0.74 0.74 0.73 0.71 0.71 0.72 0.72 0.70 0.68 0.66 0.66 0.67 0.68 0.68 0.66 0.64 0.63 0.59 0.55 0.51 0.47 0.45 0.45 0.44 0.42 0.40 0.39 0.40 0.41 0.43 0.43 0.41 0.41 0.42 0.41 0.41 0.41 0.41
1.24 1.27 1.29 1.25 1.16 1.13 1.12 1.09 1.07 1.05 1.04 1.06 1.07 1.04 1.02 1.06 1.09 1.09 1.08 1.05 1.02 1.01 1.03 1.06 1.06 1.04 1.02 1.01 1.01 1.01 1.00 1.00 0.99 0.96 0.95 0.94 0.92 0.91 0.89 0.85 0.81 0.81 0.81 0.80 0.78 0.76 0.74 0.73 0.73 0.73 0.73 0.72 0.72 0.72 0.70 0.70 0.69 0.69 0.68 0.66 0.64 0.62 0.59 0.57 0.54 0.51 0.48 0.46 0.45 0.46 0.47 0.44 0.39 0.37 0.37 0.38 0.39 0.39 0.39 0.40 0.40 0.41 0.42 0.43 0.42
1.20 1.22 1.24 1.24 1.25 1.23 1.17 1.14 1.13 1.12 1.09 1.12 1.13 1.14 1.12 1.13 1.12 1.12 1.11 1.08 1.05 1.02 1.02 1.01 1.00 1.00 1.00 0.99 0.98 0.98 0.98 0.98 0.96 0.95 0.94 0.93 0.92 0.90 0.83 0.80 0.78 0.77 0.77 0.77 0.76 0.75 0.75 0.74 0.74 0.73 0.73 0.72 0.72 0.71 0.69 0.68 0.68 0.66 0.65 0.62 0.59 0.56 0.52 0.50 0.48 0.48 0.48 0.46 0.46 0.47 0.47 0.43 0.37 0.34 0.36 0.38 0.38 0.39 0.39 0.39 0.41 0.42 0.43 0.42 0.42
1.17 1.21 1.23 1.25 1.26 1.24 1.21 1.21 1.19 1.17 1.19 1.16 1.16 1.14 1.17 1.18 1.18 1.14 1.09 1.06 1.04 1.03 1.00 0.99 0.97 0.96 0.97 0.96 0.96 0.95 0.95 0.95 0.94 0.93 0.92 0.91 0.91 0.88 0.83 0.80 0.78 0.77 0.75 0.74 0.74 0.74 0.73 0.73 0.73 0.72 0.72 0.71 0.71 0.70 0.68 0.67 0.66 0.64 0.62 0.61 0.59 0.55 0.52 0.48 0.46 0.45 0.43 0.40 0.40 0.40 0.39 0.38 0.33 0.30 0.31 0.34 0.36 0.38 0.40 0.41 0.42 0.42 0.42 0.42 0.43
1.30 1.29 1.27 1.27 1.25 1.25 1.23 1.23 1.20 1.21 1.25 1.26 1.23 1.19 1.20 1.20 1.16 1.11 1.07 1.06 1.05 1.01 0.96 0.94 0.94 0.92 0.90 0.91 0.96 0.94 0.94 0.93 0.91 0.89 0.89 0.87 0.85 0.84 0.83 0.80 0.78 0.75 0.74 0.74 0.74 0.73 0.71 0.70 0.71 0.70 0.71 0.72 0.70 0.69 0.67 0.65 0.64 0.62 0.60 0.59 0.59 0.58 0.55 0.51 0.45 0.42 0.38 0.34 0.31 0.29 0.28 0.27 0.25 0.25 0.27 0.32 0.36 0.37 0.39 0.40 0.41 0.41 0.42 0.42 0.43
1.29 1.29 1.30 1.29 1.27 1.26 1.27 1.27 1.23 1.22 1.22 1.25 1.26 1.23 1.20 1.15 1.10 1.09 1.09 1.07 1.04 0.99 0.95 0.94 0.92 0.91 0.91 0.93 0.92 0.94 0.92 0.87 0.84 0.82 0.82 0.82 0.83 0.83 0.81 0.80 0.77 0.75 0.75 0.74 0.74 0.71 0.69 0.68 0.69 0.70 0.69 0.68 0.68 0.68 0.66 0.64 0.63 0.62 0.61 0.60 0.60 0.58 0.55 0.52 0.49 0.47 0.44 0.40 0.36 0.33 0.29 0.25 0.24 0.23 0.25 0.30 0.35 0.37 0.37 0.38 0.39 0.40 0.40 0.43 0.43
1.23 1.25 1.27 1.29 1.28 1.28 1.28 1.26 1.20 1.19 1.21 1.24 1.23 1.17 1.15 1.10 1.09 1.10 1.09 1.07 1.02 0.98 0.96 0.93 0.92 0.91 0.93 0.94 0.93 0.94 0.90 0.87 0.85 0.82 0.82 0.82 0.83 0.82 0.81 0.79 0.77 0.75 0.74 0.73 0.72 0.71 0.69 0.68 0.69 0.69 0.67 0.67 0.66 0.66 0.66 0.65 0.64 0.63 0.61 0.59 0.56 0.54 0.53 0.51 0.49 0.48 0.45 0.43 0.39 0.36 0.33 0.29 0.26 0.24 0.24 0.27 0.32 0.36 0.37 0.37 0.39 0.40 0.41 0.43 0.45
1.24 1.23 1.24 1.25 1.29 1.26 1.21 1.18 1.16 1.16 1.18 1.21 1.16 1.14 1.13 1.12 1.11 1.11 1.10 1.07 1.03 0.99 0.96 0.95 0.93 0.94 0.96 0.96 0.96 0.95 0.92 0.89 0.88 0.86 0.85 0.84 0.82 0.81 0.81 0.80 0.78 0.77 0.75 0.74 0.73 0.72 0.70 0.69 0.68 0.67 0.66 0.66 0.66 0.65 0.65 0.65 0.64 0.62 0.59 0.57 0.54 0.52 0.51 0.50 0.49 0.48 0.45 0.41 0.36 0.32 0.30 0.27 0.25 0.24 0.24 0.26 0.29 0.33 0.36 0.39 0.40 0.41 0.44 0.45 0.47
1.27 1.25 1.24 1.23 1.25 1.24 1.19 1.16 1.17 1.19 1.19 1.18 1.16 1.13 1.12 1.11 1.12 1.10 1.07 1.05 1.02 0.99 0.96 0.95 0.95 0.96 0.96 0.96 0.95 0.96 0.95 0.93 0.91 0.88 0.85 0.84 0.83 0.82 0.82 0.80 0.79 0.78 0.76 0.75 0.76 0.74 0.71 0.69 0.68 0.67 0.66 0.66 0.65 0.64 0.63 0.61 0.59 0.57 0.55 0.54 0.52 0.50 0.48 0.48 0.47 0.45 0.42 0.39 0.34 0.29 0.27 0.27 0.28 0.28 0.29 0.31 0.33 0.36 0.37 0.40 0.42 0.44 0.45 0.46 0.46
1.22 1.24 1.22 1.21 1.20 1.17 1.16 1.17 1.19 1.20 1.19 1.15 1.12 1.13 1.13 1.12 1.11 1.10 1.07 1.05 1.01 0.97 0.94 0.93 0.93 0.93 0.94 0.96 0.96 0.96 0.93 0.90 0.86 0.84 0.84 0.84 0.83 0.81 0.79 0.78 0.78 0.78 0.79 0.79 0.78 0.75 0.73 0.70 0.68 0.67 0.67 0.67 0.66 0.64 0.60 0.56 0.53 0.51 0.50 0.50 0.49 0.48 0.46 0.45 0.43 0.42 0.41 0.41 0.39 0.36 0.33 0.34 0.34 0.34 0.34 0.36 0.39 0.41 0.42 0.43 0.45 0.45 0.45 0.46 0.47
1.11 1.12 1.11 1.10 1.12 1.19 1.19 1.20 1.17 1.17 1.14 1.14 1.14 1.13 1.12 1.12 1.11 1.09 1.05 1.00 0.96 0.94 0.93 0.92 0.91 0.92 0.92 0.93 0.93 0.91 0.89 0.87 0.84 0.84 0.82 0.80 0.79 0.78 0.78 0.78 0.79 0.79 0.78 0.76 0.75 0.74 0.72 0.70 0.68 0.68 0.68 0.67 0.66 0.64 0.60 0.56 0.53 0.50 0.48 0.47 0.46 0.46 0.45 0.43 0.43 0.43 0.44 0.44 0.43 0.40 0.36 0.33 0.34 0.35 0.37 0.40 0.42 0.42 0.43 0.44 0.44 0.45 0.47 0.48 0.48
1.12 1.12 1.12 1.12 1.11 1.10 1.09 1.10 1.09 1.09 1.10 1.10 1.11 1.12 1.13 1.08 1.07 1.04 1.00 0.96 0.93 0.93 0.93 0.92 0.92 0.91 0.89 0.88 0.87 0.86 0.85 0.83 0.82 0.80 0.79 0.78 0.78 0.77 0.77 0.77 0.76 0.74 0.72 0.71 0.71 0.71 0.70 0.69 0.68 0.66 0.65 0.64 0.63 0.61 0.58 0.56 0.54 0.52 0.50 0.47 0.44 0.43 0.43 0.44 0.44 0.45 0.46 0.45 0.44 0.42 0.40 0.36 0.33 0.35 0.38 0.41 0.42 0.42 0.42 0.44 0.45 0.47 0.48 0.48 0.47
1.17 1.15 1.14 1.12 1.10 1.09 1.08 1.07 1.07 1.07 1.07 1.05 1.03 1.02 1.02 1.00 0.98 0.96 0.95 0.95 0.95 0.94 0.92 0.91 0.90 0.89 0.87 0.86 0.85 0.83 0.81 0.80 0.79 0.78 0.78 0.78 0.77 0.76 0.75 0.74 0.72 0.71 0.69 0.68 0.68 0.69 0.68 0.67 0.65 0.64 0.62 0.61 0.60 0.58 0.56 0.56 0.55 0.53 0.51 0.48 0.45 0.43 0.44 0.45 0.46 0.46 0.45 0.44 0.43 0.41 0.39 0.36 0.34 0.35 0.39 0.41 0.42 0.44 0.45 0.46 0.48 0.49 0.49 0.49 0.49
1.16 1.15 1.13 1.12 1.10 1.08 1.07 1.06 1.04 1.02 1.01 0.99 0.98 0.97 0.96 0.96 0.95 0.95 0.94 0.93 0.92 0.91 0.89 0.88 0.87 0.86 0.84 0.82 0.81 0.80 0.80 0.79 0.78 0.77 0.76 0.75 0.75 0.74 0.72 0.72 0.70 0.68 0.67 0.67 0.67 0.67 0.67 0.66 0.65 0.63 0.61 0.59 0.57 0.56 0.54 0.53 0.53 0.52 0.50 0.47 0.45 0.44 0.43 0.44 0.45 0.44 0.44 0.44 0.42 0.39 0.37 0.34 0.33 0.35 0.39 0.42 0.44 0.45 0.46 0.48 0.49 0.50 0.50 0.50 0.50
1.12 1.11 1.10 1.09 1.08 1.06 1.06 1.05 1.03 1.02 1.00 0.99 0.98 0.97 0.97 0.96 0.95 0.94 0.93 0.91 0.89 0.87 0.86 0.85 0.85 0.84 0.82 0.82 0.81 0.80 0.78 0.77 0.76 0.74 0.73 0.72 0.72 0.71 0.70 0.68 0.66 0.64 0.63 0.63 0.64 0.64 0.65 0.65 0.63 0.60 0.58 0.56 0.54 0.53 0.52 0.52 0.51 0.51 0.50 0.49 0.46 0.45 0.44 0.42 0.42 0.42 0.41 0.40 0.39 0.37 0.36 0.35 0.36 0.38 0.41 0.43 0.45 0.47 0.49 0.50 0.51 0.51 0.51 0.50 0.49
1.04 1.05 1.05 1.06 1.05 1.04 1.03 1.03 1.01 1.00 0.98 0.96 0.95 0.93 0.92 0.91 0.91 0.90 0.90 0.89 0.88 0.87 0.86 0.84 0.83 0.82 0.80 0.78 0.78 0.77 0.78 0.78 0.76 0.75 0.73 0.72 0.71 0.70 0.68 0.66 0.61 0.60 0.59 0.58 0.60 0.60 0.60 0.59 0.57 0.56 0.55 0.54 0.52 0.51 0.51 0.52 0.52 0.52 0.52 0.50 0.48 0.43 0.43 0.41 0.41 0.41 0.41 0.40 0.38 0.39 0.39 0.39 0.40 0.42 0.45 0.48 0.50 0.51 0.51 0.51 0.50 0.49 0.49 0.48 0.48
0.91 0.91 0.91 0.92 0.92 0.93 0.94 0.94 0.93 0.92 0.92 0.91 0.89 0.87 0.87 0.86 0.86 0.86 0.86 0.86 0.85 0.84 0.84 0.83 0.81 0.80 0.80 0.80 0.79 0.79 0.80 0.79 0.78 0.76 0.73 0.70 0.69 0.68 0.65 0.62 0.60 0.59 0.59 0.59 0.59 0.58 0.55 0.53 0.53 0.52 0.52 0.51 0.51 0.51 0.51 0.51 0.52 0.52 0.52 0.50 0.44 0.40 0.39 0.39 0.39 0.39 0.39 0.40 0.41 0.42 0.44 0.44 0.46 0.49 0.51 0.52 0.52 0.52 0.51 0.50 0.49 0.48 0.47 0.47 0.47
0.88 0.86 0.85 0.84 0.85 0.87 0.88 0.87 0.87 0.87 0.86 0.85 0.85 0.84 0.84 0.84 0.84 0.85 0.85 0.83 0.82 0.82 0.83 0.84 0.83 0.81 0.79 0.78 0.78 0.78 0.78 0.78 0.77 0.76 0.73 0.69 0.68 0.66 0.62 0.61 0.60 0.61 0.61 0.61 0.58 0.55 0.52 0.50 0.49 0.49 0.48 0.48 0.49 0.49 0.50 0.50 0.50 0.50 0.48 0.42 0.37 0.36 0.35 0.36 0.37 0.39 0.41 0.44 0.47 0.49 0.49 0.50 0.50 0.51 0.52 0.52 0.52 0.51 0.49 0.47 0.47 0.47 0.47 0.47 0.46
Wind_Speed
38 36 34 33 33 32 32 31 29 28 28 28 27 26 24 23 22 21 21 22 21 20 19 19 18 18 17 17 17 17 17 17 17 17 16 15 15 14 13 13 13 13 13 12 12 11 10 10 11 11 11 12 13 13 13 12 13 13 13 14 13 13 13 13 11 10 11 12 12 12 12 12 12 12 12 13 13 13 13 13 13 13 13 13 13
38 37 34 33 33 33 31 30 29 29 28 28 28 26 25 23 23 22 21 22 22 20 19 18 18 17 17 17 16 16 16 16 16 15 15 14 13 13 12 12 12 11 11 10 9 8 7 7 8 9 9 10 11 11 11 12 12 13 13 13 13 12 12 11 11 10 11 12 13 13 13 13 12 12 12 13 13 13 13 13 13 13 14 14 13
38 37 35 34 33 32 31 30 29 29 28 28 28 27 25 24 23 22 22 22 22 20 19 18 18 17 16 16 15 15 15 15 15 14 14 13 13 12 12 12 11 10 10 9 7 6 6 7 7 8 9 9 10 10 10 11 12 12 12 13 12 12 12 11 11 11 12 12 13 13 13 13 12 12 13 13 13 13 13 14 13 14 14 14 14
39 38 36 34 33 32 31 31 30 29 29 29 29 27 26 24 23 22 22 22 21 20 19 18 18 17 16 15 15 15 14 14 14 14 13 13 12 12 12 11 10 9 8 8 7 7 8 8 8 8 9 9 9 9 10 11 11 11 12 12 12 12 12 12 12 12 12 13 13 13 13 12 12 12 13 13 13 13 14 14 14 14 14 14 14
39 38 37 35 33 33 32 31 30 30 29 29 29 28 26 24 23 22 22 22 21 20 19 18 17 17 16 15 15 14 14 13 13 13 12 12 12 12 11 10 9 8 8 7 7 8 8 8 8 9 9 9 10 10 11 11 11 11 12 12 12 13 13 13 13 13 13 13 13 13 12 12 12 13 13 13 14 14 14 14 14 14 14 14 15
39 38 37 35 34 33 32 31 31 30 30 30 29 28 26 24 23 23 22 22 21 20 19 18 17 16 15 15 14 13 13 13 12 12 12 11 11 11 10 9 8 8 8 7 7 7 8 7 8 9 9 10 10 10 10 11 11 12 12 13 13 13 13 13 13 13 13 13 13 13 13 13 13 13 14 14 14 14 14 15 15 15 15 15 15
39 38 37 36 34 34 33 32 31 30 30 30 29 27 26 25 24 23 22 22 21 20 20 18 17 16 15 15 14 13 12 12 12 11 11 11 10 10 9 8 7 7 7 7 7 7 7 8 8 9 9 9 10 10 10 11 12 12 12 13 13 13 13 14 14 14 13 13 13 13 13 14 14 14 14 14 14 14 15 15 15 15 15 16 16
38 37 36 35 34 33 32 32 31 31 30 30 29 27 25 24 24 23 22 22 21 21 20 19 17 16 15 14 13 13 12 12 11 11 10 10 9 8 7 7 6 7 7 7 7 7 8 8 8 8 8 9 9 10 11 11 12 12 13 13 13 14 14 14 14 14 14 14 14 14 14 15 15 15 15 15 15 15 15 15 16 16 16 16 16
36 36 35 35 34 33 32 32 31 31 30 30 29 27 25 24 24 23 23 22 21 21 20 19 17 16 15 14 13 13 12 11 11 10 10 9 8 7 6 6 6 6 6 7 7 8 8 8 8 8 8 9 9 10 11 11 12 12 13 13 14 14 15 15 15 15 14 14 14 14 15 15 16 16 16 16 16 16 16 16 16 16 16 16 17
35 35 34 34 33 32 32 32 31 31 31 29 28 26 25 25 24 23 23 22 21 21 20 19 17 16 15 14 13 13 12 12 11 10 10 9 8 7 6 6 6 6 6 7 8 8 8 8 8 9 9 9 10 10 11 12 12 13 13 14 15 15 16 16 16 15 15 15 15 15 16 16 16 17 17 17 16 16 16 16 17 17 17 17 17
33 33 33 33 32 32 32 32 31 31 30 29 27 26 26 25 24 24 23 22 22 21 20 19 18 16 15 14 13 13 12 12 11 10 10 9 8 8 7 7 7 7 7 7 8 8 9 9 9 10 10 11 11 11 12 12 13 13 14 14 15 16 17 17 17 17 16 16 16 16 17 17 17 18 18 17 17 17 17 17 17 17 17 18 17
33 33 32 33 33 32 32 32 31 30 29 28 27 26 26 25 24 24 24 23 22 21 20 19 18 16 15 14 14 13 12 12 11 11 10 10 9 9 8 8 8 8 8 8 8 9 9 9 10 11 11 12 12 13 13 13 14 14 14 15 15 16 17 17 18 18 18 17 17 17 17 17 18 18 18 18 18 18 17 17 18 18 18 19 18
33 33 33 33 32 32 32 31 31 30 29 28 27 26 26 25 25 25 24 23 22 21 20 19 18 16 15 14 14 13 12 12 11 11 10 10 10 9 9 9 9 9 9 9 9 10 10 10 11 12 12 13 13 14 14 15 15 15 16 16 16 17 18 18 18 19 19 18 18 18 18 18 18 18 19 19 18 18 18 18 18 18 19 19 19
33 33 33 33 32 32 32 31 30 29 28 27 27 26 26 25 25 25 24 23 23 21 20 20 18 17 16 15 14 13 13 12 12 11 11 11 10 10 10 10 10 10 10 10 11 11 11 12 12 13 14 14 15 15 15 16 16 17 17 18 18 19 19 19 19 19 19 19 19 19 19 19 19 19 19 19 19 19 18 18 18 19 19 19 19
32 33 33 32 32 32 31 31 29 28 28 27 26 26 26 26 25 25 24 24 23 21 20 20 18 17 16 15 14 13 13 13 12 12 11 11 11 11 11 11 11 11 11 11 12 12 13 13 14 14 15 15 16 16 17 17 17 18 18 19 19 20 20 20 20 20 20 20 20 20 20 20 19 19 19 19 19 19 19 19 19 19 19 19 19
32 33 32 32 32 32 31 30 28 28 28 27 26 26 26 26 26 25 24 23 22 21 20 19 18 17 16 15 14 14 13 13 13 12 12 11 11 12 12 12 12 12 12 12 13 13 14 14 15 15 16 16 17 18 18 18 18 19 20 20 20 20 21 21 21 20 20 20 20 20 20 19 19 19 19 19 20 19 20 20 19 20 20 20 20
32 32 33 32 32 32 31 29 28 28 28 27 27 27 27 27 26 25 24 23 22 20 20 19 19 18 17 16 15 14 14 14 13 12 12 12 12 12 13 13 13 13 13 14 14 14 15 15 16 16 17 17 17 18 20 20 20 20 21 21 21 21 21 21 20 20 21 21 20 20 19 19 19 19 20 20 21 21 20 20 20 20 21 21 21
32 32 33 32 32 31 30 29 29 28 28 27 27 27 27 27 26 25 24 23 22 21 20 19 19 18 18 16 15 15 15 15 14 13 13 12 12 12 13 13 14 14 14 15 15 16 16 16 17 17 18 18 18 19 20 21 21 21 21 21 21 21 22 21 21 21 22 22 21 20 19 19 20 20 21 22 22 22 21 21 21 21 21 22 22
33 33 32 32 31 30 29 29 29 29 28 27 26 27 27 27 26 25 24 23 22 21 20 19 19 19 18 17 16 15 15 15 15 14 13 13 13 12 12 13 14 14 15 15 16 17 17 17 18 18 18 18 18 19 20 21 21 22 21 21 21 22 22 22 22 22 22 22 21 20 20 21 21 22 22 22 23 23 22 22 22 22 22 23 22
33 32 32 31 30 29 29 29 29 29 28 27 26 27 27 27 26 25 24 23 22 21 20 19 19 18 17 17 16 16 15 15 15 15 14 14 14 13 13 13 14 14 15 16 16 17 18 18 19 19 19 19 19 19 20 20 21 22 22 22 22 22 22 22 22 22 22 21 21 22 22 22 23 23 23 23 23 23 23 22 22 22 23 23 23
32 31 31 30 29 28 28 29 29 28 28 26 26 26 27 26 25 25 24 23 22 21 21 20 18 18 17 17 16 16 16 16 16 16 15 15 15 14 14 14 15 15 16 16 17 17 18 19 19 19 19 19 20 20 20 21 21 22 22 23 23 22 22 22 22 23 22 22 22 23 23 23 24 24 23 23 23 23 23 23 23 23 23 24 24
31 31 30 30 29 28 28 28 28 28 27 27 26 26 26 26 25 25 24 23 22 22 22 20 19 18 17 17 16 16 16 16 16 16 16 15 16 16 15 15 15 16 16 16 17 17 18 19 19 19 19 20 20 21 21 21 22 22 22 23 23 22 22 22 23 23 24 24 24 24 24 24 24 24 24 24 24 23 23 24 24 24 24 24 25
31 30 30 29 29 29 28 28 28 27 27 27 27 27 27 26 26 25 24 23 23 22 22 21 20 19 18 17 16 16 16 17 17 16 16 16 17 17 17 16 16 16 16 16 17 17 18 18 19 19 19 20 20 21 21 21 22 22 23 23 23 22 23 23 23 23 24 24 24 25 25 25 24 24 24 24 24 24 24 24 24 25 25 25 26
30 29 29 29 29 28 28 28 28 27 26 26 27 27 26 26 26 25 25 24 23 22 21 21 20 19 18 17 17 16 16 17 17 17 17 17 17 17 17 17 17 17 17 17 17 18 18 19 19 19 20 20 20 20 21 21 22 22 23 23 23 23 23 23 23 23 24 24 25 25 25 26 25 25 25 24 24 24 24 24 25 25 26 26 27
29 28 28 29 28 28 27 27 27 27 26 27 27 27 26 26 26 25 25 24 23 22 21 21 20 20 19 18 17 17 17 17 18 17 17 17 17 17 18 17 17 18 18 18 18 18 18 19 19 20 20 20 20 21 21 22 22 22 23 23 24 24 24 24 24 24 24 25 26 26 25 25 25 25 25 24 24 24 24 25 25 26 26 27 27
29 28 29 29 28 27 27 27 27 27 27 27 27 27 27 27 26 25 24 24 23 23 22 22 21 20 19 19 18 17 17 17 18 18 18 17 18 18 18 18 18 18 18 18 18 18 19 19 20 20 20 20 21 21 22 22 22 22 23 24 24 24 24 24 24 25 25 25 26 26 26 26 25 25 25 25 25 25 25 25 25 26 26 27 27
29 28 28 29 28 27 27 27 26 26 27 27 27 27 27 26 26 25 24 24 23 23 22 22 21 21 20 19 18 18 17 17 18 18 18 18 18 18 18 18 19 19 19 18 18 19 19 20 20 20 20 20 21 21 21 22 22 22 23 24 25 25 25 25 25 25 25 26 26 26 27 26 25 25 25 25 25 25 25 25 26 26 26 27 27
29 28 28 28 28 27 27 27 26 25 26 27 27 27 27 26 26 26 25 25 24 22 22 22 22 21 21 20 19 18 18 17 18 18 18 18 18 18 19 19 19 19 19 19 19 19 20 20 20 20 20 20 20 21 21 22 22 22 23 24 24 25 25 25 25 26 26 26 26 26 26 26 25 25 26 26 26 26 26 26 26 26 26 26 27
29 28 28 29 28 28 27 26 25 25 25 26 26 26 26 26 26 26 25 24 24 23 22 22 21 21 21 20 20 19 19 18 18 18 18 18 18 18 18 18 19 19 19 19 19 19 20 20 20 20 21 21 21 21 21 21 22 22 23 23 23 24 24 25 25 26 26 26 26 26 26 26 26 26 26 26 26 26 26 26 26 26 26 27 27
28 28 28 29 28 28 27 26 25 25 25 25 25 25 25 25 25 26 25 24 23 22 21 21 21 20 20 20 20 19 19 19 18 17 17 17 17 17 17 18 18 19 19 19 20 20 20 20 21 21 21 21 22 22 21 21 22 22 22 23 23 23 24 25 25 26 27 27 27 27 27 27 27 27 27 27 27 27 26 26 26 26 26 26 26
28 28 28 29 28 28 27 26 26 26 26 26 26 25 25 25 24 24 24 23 22 21 21 21 20 20 20 20 19 18 18 18 17 17 17 17 17 17 17 18 18 19 19 20 21 21 21 21 21 21 21 21 22 22 22 22 23 23 23 24 24 24 24 25 26 26 27 28 28 28 27 27 27 27 27 27 27 26 26 26 26 26 26 26 27
28 28 28 28 28 28 27 27 27 27 26 27 27 26 26 25 25 24 23 22 21 21 21 21 20 20 19 19 19 18 17 17 16 16 17 18 18 17 18 18 19 20 21 21 21 22 22 22 22 22 22 22 22 23 23 24 24 24 24 24 25 25 25 26 27 27 28 28 28 28 28 28 27 27 27 26 26 26 26 25 26 26 26 26 27
28 28 28 28 28 27 27 27 27 27 27 27 27 27 27 27 26 24 23 22 21 21 21 20 20 19 18 18 18 18 17 17 17 17 17 17 17 17 18 19 20 21 21 21 22 22 22 22 23 23 23 23 23 23 24 24 24 24 25 25 25 26 26 27 27 27 28 28 28 28 28 27 27 26 26 26 25 26 25 25 25 26 26 26 26
28 28 29 28 27 27 27 27 27 27 27 28 28 28 28 28 26 25 23 22 22 21 20 20 19 18 18 18 17 17 17 17 17 17 16 16 16 17 18 19 20 21 21 22 22 23 23 23 23 24 24 23 23 24 24 24 24 25 25 25 26 26 26 27 27 27 27 27 27 27 27 26 26 26 26 26 25 25 25 25 25 26 26 26 26
27 28 28 28 27 27 27 27 27 28 28 29 29 28 28 27 27 25 24 23 23 22 21 20 19 18 18 17 17 16 16 17 17 16 16 16 17 18 19 20 20 21 22 22 23 23 23 23 23 24 24 24 24 24 24 24 24 24 25 25 25 25 25 26 26 26 26 26 26 26 26 25 25 25 26 25 25 25 25 25 26 26 26 25 26
27 28 28 28 27 27 27 27 28 28 29 29 30 28 27 27 26 25 24 24 23 22 21 20 19 18 17 17 17 16 16 16 16 16 16 16 17 19 20 21 21 21 21 22 22 23 23 23 23 24 24 25 25 25 24 24 24 24 24 24 24 24 24 25 25 25 25 25 25 25 25 25 25 26 25 25 25 26 26 26 26 26 26 26 26
27 28 28 27 27 27 27 27 27 28 28 29 29 28 28 27 26 24 23 23 22 21 21 20 19 18 18 18 18 17 17 16 16 16 17 18 19 20 21 21 21 21 22 22 22 23 23 23 23 24 24 25 25 25 24 24 23 23 24 24 24 24 24 24 24 24 24 24 24 24 24 25 26 26 26 26 26 26 26 26 26 26 26 26 26
26 26 26 26 26 26 26 27 27 27 28 28 27 27 27 26 25 24 23 22 21 21 20 20 19 19 19 19 19 18 18 17 17 17 18 19 20 21 21 21 22 22 22 22 22 22 23 23 23 23 24 25 25 25 24 23 23 23 23 23 23 23 23 23 23 22 22 22 22 23 24 25 26 26 26 26 26 26 26 26 26 26 26 26 26
24 25 25 26 26 25 26 27 27 27 27 27 27 26 26 25 24 23 22 21 21 21 20 20 19 19 19 19 19 19 19 19 19 19 20 21 21 21 22 22 22 22 22 22 22 22 22 22 23 23 24 24 24 24 23 23 22 22 22 22 22 22 22 22 22 21 22 22 22 23 24 25 25 26 26 26 26 27 27 26 26 26 26 25 25
24 24 24 24 24 25 26 27 26 26 26 26 26 25 25 24 23 22 21 21 21 20 20 20 19 19 19 19 20 19 19 20 20 21 21 21 22 22 23 23 23 23 23 22 22 22 22 22 22 23 23 23 23 23 22 22 22 22 21 21 21 21 21 21 21 21 21 22 22 23 24 25 25 25 25 26 26 27 27 27 26 26 26 25 24
22 23 22 22 23 24 25 25 25 25 26 26 25 24 23 23 23 22 21 21 21 21 20 20 19 20 20 20 20 20 20 21 21 22 22 22 23 23 23 23 23 23 23 22 22 22 22 22 22 22 22 22 22 22 22 21 21 21 21 21 21 21 21 21 21 21 21 22 22 23 23 24 25 25 25 25 26 26 26 26 25 25 24 24 23
21 21 21 21 22 23 24 23 23 24 25 25 24 22 22 22 22 22 21 21 21 21 21 20 20 20 20 20 20 21 21 21 22 23 23 23 23 23 23 23 23 23 23 23 23 23 23 23 22 22 22 22 22 21 21 21 21 21 21 21 21 21 21 21 20 21 21 22 22 22 23 24 24 25 25 25 25 25 25 24 23 22 22 22 22
19 19 20 20 21 22 22 22 23 23 23 23 22 21 21 22 22 22 21 21 21 21 21 20 20 20 20 20 21 21 22 22 23 23 23 23 23 23 23 23 23 23 23 24 24 24 23 23 22 22 22 22 22 21 21 21 21 21 21 21 21 21 20 20 20 21 21 22 22 23 23 24 25 25 25 25 25 25 24 22 21 21 21 22 22
18 18 18 18 18 19 20 21 21 21 21 21 21 21 21 22 22 22 21 21 21 21 20 20 20 20 20 21 21 22 23 23 23 23 23 23 23 23 23 23 23 23 24 24 24 24 24 23 23 22 22 21 21 21 21 20 20 20 20 20 21 21 21 21 21 21 21 22 23 24 24 25 25 26 26 26 25 24 22 21 20 21 21 21 21
17 18 18 18 17 17 18 18 19 19 19 19 20 20 20 20 20 20 20 21 21 20 20 20 20 20 21 22 23 24 24 24 23 23 22 22 22 23 23 23 23 23 24 24 24 24 23 23 23 23 22 21 21 20 20 20 20 20 20 21 21 22 22 22 22 22 23 23 24 24 25 25 25 26 26 25 24 22 21 20 20 20 21 22 22
16 17 17 17 17 16 17 17 18 17 18 18 19 19 20 19 19 19 20 20 20 20 20 20 21 21 22 23 23 24 23 23 23 22 22 22 22 22 23 23 23 23 23 23 23 23 23 23 23 22 22 21 21 20 20 20 20 20 21 21 22 22 22 22 23 23 24 24 25 25 25 25 25 25 25 24 22 20 20 19 20 20 21 22 22
15 15 16 16 16 16 16 17 17 17 17 18 18 19 19 19 19 19 19 19 19 20 20 21 22 22 23 23 23 23 22 22 22 22 22 22 22 22 23 23 23 22 22 22 22 22 22 22 22 22 21 21 20 20 20 20 20 20 21 22 22 22 22 22 23 23 24 25 25 25 25 25 25 24 23 22 20 19 19 19 20 20 21 21 20
12 13 13 14 14 15 15 16 16 16 17 17 18 18 19 19 19 20 20 20 21 21 21 21 22 22 22 22 22 21 21 21 21 21 22 22 22 22 23 23 22 22 22 22 22 22 22 22 21 21 21 21 20 20 20 20 20 20 21 21 22 22 22 23 23 24 24 24 25 25 25 24 24 23 21 20 19 19 19 19 20 20 20 19 19
11 12 12 13 13 14 15 15 16 16 17 17 18 18 19 19 20 20 21 21 21 22 22 22 22 22 22 22 21 21 21 21 21 22 22 22 22 22 22 22 22 21 21 21 21 21 21 21 21 21 21 20 20 20 20 20 21 21 21 22 22 23 23 24 24 24 24 24 24 24 23 23 22 20 19 19 18 18 19 19 19 19 19 18 17
11 12 12 13 13 14 15 15 16 16 17 17 18 19 19 20 21 21 21 21 21 21 22 22 22 22 22 22 21 21 21 21 22 22 22 22 22 22 22 22 21 21 21 21 21 21 21 21 21 20 21 21 20 20 20 20 21 21 22 23 23 24 24 24 24 24 23 23 22 21 21 20 19 19 18 18 18 18 18 18 18 18 17 17 16
11 12 12 13 13 14 15 15 16 17 17 18 18 19 19 20 20 20 21 21 21 21 22 22 22 22 21 21 21 21 22 22 23 23 22 22 22 22 22 21 21 21 21 21 21 21 21 20 20 20 21 21 20 20 20 21 21 22 22 23 24 24 23 23 22 22 21 20 19 19 19 19 19 18 18 18 17 17 17 17 17 16 16 15 14
Wind_Direction
229 230 230 231 232 234 235 236 238 239 239 237 238 241 242 244 247 248 247 246 247 247 249 253 258 263 267 272 276 279 282 285 289 291 293 294 295 294 291 288 286 283 280 280 278 272 262 251 240 231 225 222 223 228 233 237 241 245 248 252 257 261 264 268 271 273 276 277 278 281 282 283 286 287 288 289 291 292 293 294 295 295 295 297 299
229 230 230 231 232 233 234 235 237 238 237 235 236 239 240 242 246 247 246 245 244 244 247 251 257 262 267 272 275 278 282 285 288 291 293 294 294 294 291 288 286 283 280 277 271 261 249 233 221 216 216 220 225 232 237 240 244 247 250 254 258 261 263 266 270 275 278 278 278 281 282 283 286 287 286 288 290 291 292 293 294 294 293 294 297
229 230 231 231 231 232 233 234 235 236 235 233 234 236 238 240 244 245 245 243 242 242 246 250 255 261 266 271 273 276 280 283 286 290 292 292 292 291 289 287 285 282 276 268 257 247 236 225 218 218 221 225 229 235 240 243 248 250 252 255 257 258 261 266 272 277 279 278 278 280 280 281 285 287 286 288 290 289 291 292 293 293 293 294 296
229 230 230 230 230 231 233 233 233 234 233 232 232 233 236 239 242 243 242 241 239 240 244 248 254 260 264 267 270 273 278 282 285 289 290 289 289 289 287 285 284 278 266 257 250 242 235 231 229 229 231 232 234 239 244 248 251 252 253 254 256 259 262 267 273 277 279 279 278 279 279 279 284 287 287 287 288 288 289 290 292 292 292 293 296
229 230 230 229 229 230 231 232 232 233 231 230 229 231 234 237 240 241 239 238 237 239 242 247 252 258 262 264 266 271 276 280 284 286 286 286 287 288 286 283 281 273 260 252 249 241 235 236 237 236 237 239 240 244 247 249 250 251 253 255 257 261 263 267 273 276 279 280 279 278 277 279 284 287 286 286 287 287 288 289 290 291 292 292 295
228 229 229 229 229 230 231 230 231 230 228 227 227 230 232 235 238 239 237 235 236 238 241 245 251 256 258 260 263 269 275 278 282 282 282 284 285 286 285 279 275 270 259 251 246 238 231 236 242 242 242 242 243 246 247 248 249 251 254 256 259 261 262 267 273 276 279 280 278 276 275 277 282 285 285 285 286 286 286 288 289 290 291 292 293
226 227 227 227 228 229 229 229 229 228 225 225 226 228 231 234 236 236 234 233 234 236 239 244 249 252 254 256 260 266 272 276 278 278 279 281 283 284 283 275 268 266 259 248 241 235 233 242 249 247 246 246 247 248 248 249 252 254 256 258 260 261 263 268 273 276 279 279 277 275 274 276 280 284 284 285 285 286 286 287 288 289 290 291 292
224 225 225 225 226 226 226 227 227 224 222 222 224 226 230 232 234 233 232 231 232 234 238 242 245 248 250 252 257 263 269 272 274 274 275 277 278 280 278 270 262 259 253 243 236 233 234 243 249 246 246 250 253 254 253 254 256 257 258 261 262 263 265 269 273 276 277 277 275 274 275 277 279 282 283 283 284 285 285 286 287 288 289 290 292
222 223 223 223 224 224 224 224 223 220 219 220 222 225 228 230 231 230 229 229 230 232 237 240 242 244 246 249 254 260 265 268 268 269 270 269 270 272 270 264 257 254 249 242 239 237 237 241 246 246 247 252 258 260 259 260 262 262 262 263 264 265 266 269 272 274 276 276 274 274 275 276 278 279 280 280 282 284 285 286 287 288 288 290 292
219 219 220 220 221 221 221 220 218 217 217 219 221 224 227 228 229 227 226 226 227 231 235 237 239 241 242 245 251 258 262 263 263 264 265 263 263 265 263 259 255 252 250 246 244 243 243 243 245 246 249 254 259 262 263 263 266 268 267 265 266 266 267 269 271 273 275 275 274 274 275 276 277 277 278 279 282 284 284 285 287 288 288 289 291
216 217 217 217 217 218 218 216 214 214 216 218 220 223 225 227 226 225 223 223 225 229 232 234 237 239 239 243 249 255 258 258 257 259 259 258 260 260 258 257 255 254 253 250 248 249 250 250 251 251 253 257 260 263 265 266 268 270 270 270 271 271 270 270 272 273 274 275 275 275 276 277 277 277 279 280 281 283 284 284 286 287 287 288 290
214 214 215 214 214 215 214 213 212 213 215 217 220 223 224 224 223 221 220 220 224 229 231 231 234 236 237 242 247 252 255 252 251 254 254 255 257 257 256 256 255 255 256 254 253 253 255 257 258 259 260 261 263 264 266 267 268 269 271 272 274 275 275 275 274 274 273 275 276 277 278 279 277 277 278 279 280 282 283 284 285 286 286 288 290
213 213 213 213 212 212 211 211 211 212 214 216 220 223 223 221 219 217 217 220 225 228 228 229 231 233 235 240 245 249 251 248 247 250 251 252 254 256 257 256 255 256 257 257 258 258 260 261 263 264 265 264 265 266 266 268 269 270 271 271 273 275 277 277 277 276 275 275 277 278 279 279 278 277 278 278 280 281 282 284 285 285 286 288 291
212 212 212 211 211 210 209 209 210 211 213 216 220 221 220 217 215 215 217 220 224 226 226 227 229 230 233 238 243 247 248 245 245 247 249 250 252 255 258 257 257 257 257 259 262 262 264 265 266 267 267 266 267 267 268 268 269 270 271 271 273 274 275 275 277 276 275 276 277 278 279 280 279 278 278 279 280 280 282 284 284 285 287 288 290
211 210 209 209 208 207 207 208 209 211 214 217 220 218 215 214 213 214 217 220 223 225 225 225 227 229 232 237 241 245 245 243 243 246 248 248 250 254 257 257 258 260 260 261 264 265 267 268 269 269 268 268 268 268 269 269 270 270 271 272 274 274 274 274 275 275 274 275 277 278 279 280 279 278 278 279 279 280 283 285 285 285 287 287 288
209 208 206 205 204 205 207 208 209 212 214 216 216 214 212 211 212 215 218 220 223 224 224 224 226 227 231 236 240 243 243 241 241 244 246 247 250 254 256 256 258 261 263 264 266 268 269 270 271 272 271 271 270 270 271 272 272 273 273 274 274 274 274 273 273 274 274 275 277 278 279 279 279 278 278 278 278 280 283 285 285 285 285 285 286
206 204 202 202 202 205 207 208 210 212 213 213 212 211 210 210 212 215 217 219 222 223 223 224 226 227 231 236 240 242 241 240 240 243 245 247 250 255 256 257 259 261 264 267 268 270 271 272 274 275 275 275 273 273 274 274 275 275 275 275 275 274 274 272 271 272 274 275 278 278 278 278 278 278 278 278 279 280 282 284 284 284 284 285 287
202 201 200 201 203 206 208 209 210 212 211 210 210 209 209 210 212 215 217 219 221 221 223 225 225 227 232 236 240 241 240 239 239 242 245 247 251 256 258 259 261 263 265 268 270 272 274 275 276 277 277 276 275 274 275 274 275 276 276 276 275 274 274 272 270 272 274 275 277 277 277 277 277 278 278 279 280 280 281 284 284 283 284 287 288
200 200 200 202 205 207 209 210 211 210 209 208 208 209 209 211 213 215 218 220 220 220 224 225 225 227 232 236 240 241 240 239 239 242 245 247 252 258 260 261 264 266 268 270 272 274 276 276 277 278 279 278 276 275 274 273 274 275 275 275 275 274 274 273 272 273 274 274 275 274 275 276 277 278 279 279 280 280 280 284 286 284 285 288 289
199 199 200 203 206 207 209 210 210 209 207 207 208 210 211 212 213 216 219 220 220 221 224 225 224 226 231 236 239 241 240 239 239 242 245 248 253 259 263 264 267 270 272 274 275 277 278 278 277 278 279 278 277 276 274 274 275 275 274 273 273 273 274 274 273 272 272 274 274 273 273 275 276 278 280 280 279 279 278 282 286 287 287 289 288
197 198 200 203 205 207 209 209 208 207 206 207 209 210 211 212 214 216 219 220 221 222 223 224 225 227 231 236 239 240 241 239 239 242 246 249 253 260 265 268 270 273 274 276 278 279 280 280 280 279 279 278 278 277 276 275 276 276 275 274 273 273 275 274 273 272 271 272 274 274 274 276 277 278 280 281 280 279 278 280 284 287 289 291 290
197 199 201 204 205 207 208 207 206 206 206 208 209 210 211 212 214 217 219 221 221 222 223 224 226 228 232 236 239 241 241 240 241 244 247 250 254 260 267 272 273 275 277 278 280 281 280 281 281 281 280 280 278 277 276 275 276 277 277 275 273 274 277 276 274 273 272 273 274 274 275 276 277 278 280 281 280 279 279 280 281 284 287 290 291
198 201 203 204 206 207 206 205 205 206 207 209 210 210 211 212 215 217 219 221 221 222 223 224 226 229 233 237 239 241 241 241 243 246 249 252 255 260 267 272 273 276 279 281 282 283 283 283 283 283 282 282 280 278 277 277 277 278 278 276 273 274 277 277 275 274 274 274 274 275 275 276 278 279 280 281 281 280 280 281 281 283 286 288 289
200 202 203 204 205 206 205 205 206 207 208 210 210 210 210 213 216 218 220 222 222 223 223 224 225 229 233 236 239 241 242 242 245 248 251 254 257 261 266 270 273 277 280 282 284 285 285 285 285 285 284 282 281 279 277 278 278 278 278 276 274 274 276 276 275 274 274 274 275 276 277 277 278 279 280 282 282 282 281 281 281 283 285 287 288
202 204 204 205 205 205 206 207 207 209 210 211 211 211 211 214 217 219 222 223 224 224 225 225 226 229 233 237 239 241 242 243 246 249 252 255 258 262 266 269 273 277 280 282 284 285 286 287 287 287 285 283 282 281 280 280 279 279 278 276 275 274 275 276 276 275 274 274 275 277 279 279 279 280 280 281 282 282 282 282 282 283 285 286 288
203 204 205 205 206 206 206 207 209 212 213 213 212 213 214 216 219 221 223 224 224 225 225 226 227 231 234 237 239 240 242 245 246 249 253 256 259 263 266 268 272 277 280 282 284 286 287 287 288 287 286 284 283 284 283 282 281 279 278 277 276 276 276 276 276 275 275 275 276 278 279 279 279 280 280 281 281 282 283 283 284 285 286 287 288
203 204 205 206 207 208 208 209 211 213 213 213 214 215 216 219 221 222 223 224 224 224 225 226 229 233 235 237 239 240 243 246 247 249 253 256 260 263 267 270 273 276 278 281 283 284 285 286 287 287 286 284 284 285 285 284 282 280 279 278 277 276 276 275 275 275 275 277 278 278 278 279 280 279 280 281 282 283 284 284 286 287 287 287 288
204 205 206 207 209 210 209 210 212 213 213 213 215 216 218 221 222 223 223 223 223 223 225 228 232 235 237 238 239 240 244 247 249 250 253 257 261 264 268 271 273 275 277 280 282 284 285 286 286 286 284 283 283 284 284 284 283 282 280 279 278 277 276 275 275 275 277 279 280 279 279 280 280 280 281 281 282 283 284 285 287 288 288 288 289
205 207 208 209 210 210 210 212 213 213 213 214 216 218 219 221 222 223 223 222 222 224 227 231 235 237 237 236 237 239 243 246 248 251 255 259 263 266 269 271 272 275 277 281 284 286 286 287 287 286 285 284 283 283 283 283 283 283 282 280 279 278 277 276 276 276 278 279 279 280 280 281 281 281 281 281 282 284 285 286 287 289 289 289 290
206 207 209 210 212 212 213 214 216 216 216 216 217 218 220 222 224 223 221 221 223 226 229 233 236 237 237 237 238 241 245 247 249 252 257 260 263 266 269 271 274 278 280 282 285 287 287 288 288 287 286 284 283 283 283 283 284 284 283 282 281 279 278 277 277 277 278 278 279 280 281 281 282 282 281 282 284 285 286 286 287 288 289 289 289
208 209 211 213 214 215 216 216 217 218 218 217 217 219 220 223 224 222 220 221 223 226 231 234 236 237 237 238 240 244 247 249 251 254 257 260 262 265 268 272 276 280 281 282 284 286 287 288 288 288 287 286 284 284 283 283 284 284 283 282 282 281 280 279 278 278 278 278 279 280 281 282 282 281 281 282 283 285 286 286 286 287 288 289 290
211 212 214 215 215 216 218 219 219 220 219 218 218 219 219 220 221 221 221 222 224 227 231 233 234 235 237 238 240 243 246 249 252 255 257 259 262 265 271 275 278 280 281 281 283 285 287 288 288 289 288 287 286 285 284 283 283 282 282 282 282 281 281 280 280 279 278 278 278 279 280 281 281 281 281 282 282 284 285 285 285 286 288 289 290
212 214 216 217 218 219 220 220 221 221 220 219 219 219 218 218 218 218 220 222 225 229 232 232 232 233 236 238 240 243 245 248 252 255 257 260 263 268 273 277 279 280 280 281 284 286 288 288 288 289 289 288 287 287 286 284 283 282 282 282 282 282 282 281 281 281 280 279 278 278 278 279 279 280 280 281 282 283 284 285 286 287 289 290 291
213 214 215 217 219 221 221 221 221 221 220 220 219 219 219 218 217 217 218 221 225 228 229 229 231 233 235 237 240 242 245 248 252 255 257 261 266 271 275 279 280 281 281 282 284 286 287 288 288 288 289 289 289 289 288 285 284 283 283 283 283 284 283 283 283 283 282 280 279 278 278 278 279 279 280 280 281 283 284 286 287 288 290 290 291
216 216 215 217 220 223 223 223 222 221 221 219 218 218 218 216 214 216 219 222 225 225 225 226 230 233 234 237 239 243 247 250 252 254 258 263 268 272 276 280 282 283 283 284 285 286 286 287 288 288 288 289 290 290 288 286 285 284 284 285 285 285 285 284 284 284 283 281 280 279 279 279 279 279 279 280 281 283 284 286 288 289 290 290 291
218 218 219 221 223 224 224 223 222 222 221 218 217 217 217 214 213 217 220 222 223 223 223 225 229 232 233 236 240 245 250 251 253 255 260 264 269 274 278 282 284 285 285 285 286 286 287 287 287 288 288 289 290 290 288 286 285 285 286 286 286 286 286 286 285 284 283 282 280 279 278 278 279 279 279 280 282 283 284 286 288 289 289 289 290
219 220 222 223 224 224 223 222 222 222 220 217 215 215 214 212 213 217 220 220 222 222 223 225 228 231 233 237 242 248 252 253 254 258 262 267 271 276 281 284 285 285 286 286 286 287 287 287 287 288 289 289 290 290 289 287 286 286 286 286 286 287 287 287 286 285 284 282 281 280 279 279 279 280 279 280 282 283 284 286 287 288 288 288 288
219 221 222 222 223 223 222 220 219 218 217 215 213 210 209 210 213 216 217 219 221 222 224 226 228 232 236 240 244 248 251 253 256 260 266 269 272 276 281 284 284 284 285 286 286 286 287 287 288 289 290 290 290 290 290 288 286 286 286 286 286 286 287 287 287 286 285 284 283 283 282 282 281 281 280 280 281 283 285 286 287 288 288 287 287
221 221 220 220 221 220 218 216 215 214 214 213 210 208 208 211 213 215 217 219 221 223 225 227 231 235 238 242 246 249 252 255 258 263 268 272 274 278 281 282 282 283 284 285 286 286 287 288 289 290 290 290 290 290 290 289 287 286 286 286 286 286 286 287 287 287 286 287 286 286 285 284 283 281 280 280 281 282 285 286 287 287 287 286 286
222 220 218 217 216 214 212 210 210 211 211 210 209 208 210 213 214 216 219 221 222 225 227 230 234 238 241 244 247 250 254 258 262 267 271 274 276 278 279 280 281 281 282 284 285 285 287 289 290 291 291 291 290 291 290 289 287 285 285 286 287 287 287 287 287 288 288 289 290 289 288 286 284 283 282 282 282 283 284 285 286 286 285 285 286
217 214 212 210 208 206 204 205 208 209 208 207 206 208 211 213 215 218 221 223 225 227 230 234 238 242 244 246 247 251 258 263 267 270 273 275 275 276 277 278 279 280 281 282 284 285 287 289 291 291 291 291 291 290 289 287 285 284 283 285 287 287 287 287 287 288 290 292 292 291 290 288 287 285 284 284 283 284 284 284 284 284 284 285 286
204 203 202 201 201 201 202 204 205 204 203 203 207 211 214 215 217 219 221 223 227 230 233 237 241 244 247 248 249 253 261 267 270 272 273 274 274 275 276 277 278 279 280 282 283 284 286 289 290 290 290 291 290 289 287 286 284 283 282 283 285 286 287 288 288 289 291 294 295 293 291 290 289 287 286 286 285 285 284 283 282 282 283 285 286
193 194 196 198 200 202 203 203 202 201 203 207 211 214 215 215 218 220 222 225 229 231 234 238 242 246 249 252 253 257 263 269 271 272 272 272 272 274 275 277 278 279 280 281 282 283 285 287 287 288 288 288 287 287 286 286 286 285 283 283 284 285 285 287 289 290 292 294 296 295 292 291 290 289 288 287 286 285 283 281 280 281 284 285 286
190 192 193 195 196 197 198 198 199 202 207 210 212 212 213 215 218 221 223 226 229 232 236 241 245 248 252 255 258 261 265 268 270 270 271 272 273 274 276 277 278 279 280 281 282 283 284 284 284 285 285 285 284 284 285 286 286 286 285 284 284 285 285 286 289 291 293 294 295 295 293 291 290 290 289 287 286 284 281 279 280 282 284 284 286
193 193 193 193 193 194 195 198 201 205 208 210 211 212 213 216 219 221 225 228 231 235 241 246 249 252 255 259 261 263 265 267 268 270 270 271 273 274 276 277 278 280 281 282 282 282 282 282 283 283 283 282 282 282 284 285 285 285 285 285 285 285 285 286 287 290 292 294 294 294 294 292 290 289 289 288 285 282 279 279 281 283 284 285 287
194 193 193 195 198 200 201 203 205 208 210 212 214 214 215 218 222 225 229 233 237 241 246 250 252 256 259 260 261 263 264 266 268 269 269 271 273 275 276 278 280 281 282 281 281 281 281 282 282 282 281 280 281 282 282 283 284 285 286 286 286 287 287 288 288 289 291 292 294 294 293 292 290 289 288 286 283 279 277 279 282 284 285 286 287
191 193 196 199 203 206 208 209 211 212 214 215 216 218 220 225 229 232 236 241 244 247 250 254 256 257 259 260 261 262 263 265 267 268 269 271 273 275 277 279 280 280 280 280 280 281 281 281 281 280 279 279 280 281 282 283 284 286 287 288 289 289 290 290 291 291 291 292 293 293 292 291 290 288 285 283 280 278 277 280 283 285 286 287 286
193 196 200 203 206 209 211 213 214 216 218 220 222 225 229 233 236 239 243 246 248 251 253 256 257 258 259 260 261 262 263 265 267 269 271 273 274 276 277 278 278 278 278 279 280 281 281 280 279 278 277 277 279 280 282 283 285 287 289 290 291 292 292 293 294 295 295 295 295 293 292 291 289 287 283 280 278 277 278 280 284 286 286 285 285
204 206 209 211 213 215 217 219 220 222 225 228 230 234 237 240 243 246 248 250 252 253 254 256 257 258 259 260 260 261 263 265 268 271 273 274 275 276 276 276 275 275 276 278 279 279 279 279 277 276 276 277 278 279 281 283 285 288 290 291 293 294 294 294 295 296 297 297 296 295 293 292 290 286 282 280 279 278 279 281 284 285 285 283 283
217 218 220 221 222 223 225 227 229 231 234 236 239 243 245 247 249 251 252 253 254 254 254 256 257 258 259 260 260 261 262 264 267 270 272 273 274 274 275 274 273 274 275 277 278 279 278 277 276 276 277 277 278 279 281 283 286 289 291 293 294 295 295 294 295 296 298 298 297 296 295 293 289 285 282 281 280 280 281 283 283 283 283 281 282
228 228 228 229 230 232 234 237 239 242 244 247 249 251 252 253 254 255 255 255 255 255 255 256 257 258 259 261 262 263 264 265 267 269 271 272 272 273 273 273 273 273 274 276 277 277 277 276 276 276 276 276 276 278 281 284 287 290 292 295 296 296 296 296 296 297 298 299 299 298 297 294 290 285 282 280 280 280 281 281 281 282 282 282 283